Regional Weather Roundup
Issued by NWS

Home | Current Version | Previous Version | Text Only | Print | Product List | Glossary On
Versions: 1 2 3 4 5 6 7 8 9 10 11 12 13 14 15 16 17 18 19 20 21 22 23 24 25 26 27 28 29 30 31 32 33 34 35 36 37 38 39 40 41 42 43 44 45 46 47 48 49 50
000
ASUS43 KMPX 230210
RWRMN
WEATHER ROUNDUP FOR MINNESOTA
NATIONAL WEATHER SERVICE TWIN CITIES/CHANHASSEN MN
900 PM CDT TUE AUG 22 2017


NOTE: "FAIR" INDICATES FEW OR NO CLOUDS BELOW 12,000 FEET WITH NO
SIGNIFICANT WEATHER AND/OR OBSTRUCTIONS TO VISIBILITY. N/A MEANS
CURRENT SKY AND/OR WEATHER CONDITIONS ARE NOT AVAILABLE.

MNZ060>063-068>070-230300-
   Twin Cities Metro

CITY           SKY/WX    TMP DP  RH WIND       PRES   REMARKS
TWIN CITIES    CLEAR     67  49  52 W9        30.04R
ST PAUL        CLEAR     67  49  52 W7        30.03S
CRYSTAL        CLEAR     64  47  53 W6        30.02S
BLAINE         CLEAR     66  50  55 W3        30.03S
LAKEVILLE      CLEAR     61  52  72 W5        30.05S
EDEN PRAIRIE   CLEAR     65  49  56 W7        30.04R
SOUTH ST PAUL  CLEAR     67  48  50 W6        30.03S
LAKE ELMO      FAIR      61  52  72 W5        30.04R
$$
MNZ001>005-007-008-013>017-022>024-027-028-230300-
   Northwest Minnesota

CITY           SKY/WX    TMP DP  RH WIND       PRES   REMARKS
BEMIDJI        CLEAR     57  50  77 NW6       30.05R
HALLOCK        CLEAR     63  50  63 N7        30.06R
ROSEAU         MOCLDY    61  54  77 CALM      30.05R
WARROAD        PTCLDY    57  54  88 W5        30.05S
THIEF RVR FALL CLEAR     59  50  72 NW5       30.07R
CROOKSTON      CLEAR     63  46  55 N3        30.07R
FOSSTON        CLEAR     55  46  71 NW3       30.07R
DETROIT LAKES  CLEAR     61  46  59 NW5       30.09R
MOORHEAD       CLEAR     61  46  59 N6        30.08R
PARK RAPIDS    PTCLDY    59  47  64 NW6       30.05R
MAHNOMEN       FAIR      57  46  68 NW5       30.07R
$$
MNZ006-009>011-018-025>026-230300-
   North Central Minnesota

CITY           SKY/WX    TMP DP  RH WIND       PRES   REMARKS
BAUDETTE       CLEAR     56  50  80 NW8       30.03R
FLAG ISLAND    CLEAR     61  48  63 N6        30.03R
INTL FALLS     PTCLDY    55  47  74 NW8       29.99R
WASKISH        MOCLDY    61  54  77 NW7       30.03R
BIG FORK       MOCLDY    59  52  77 CALM      30.02R
LONGVILLE      CLOUDY    63  52  67 NW5       30.03R
GRAND RAPIDS   MOCLDY    56  52  86 CALM      30.04R
CRANE LAKE     MOCLDY    52  50  93 CALM      29.99R
ORR            CLEAR     57  50  77 NW6       29.97R
COOK           CLEAR     55  54  94 W5        29.99R
WALKER         FAIR      59  52  77 CALM      30.04R
$$
MNZ012-019>021-037-230300-
   Northeast Minnesota

CITY           SKY/WX    TMP DP  RH WIND       PRES   REMARKS
DULUTH         PTCLDY    57  52  83 NW5       29.98R
ELY            MOCLDY    55  54  94 NW6       29.96R
HIBBING        CLEAR     57  51  80 NW9       30.00R
EVELETH        CLEAR     59  49  70 W7        30.00R
DULUTH HARBOR  PTCLDY    66  55  68 W13       29.98R
TWO HARBORS    PTCLDY    61  55  82 CALM      29.95R
GRAND MARAIS     N/A     57  54  89 W3        29.89R
G MARAIS ARPRT PTCLDY    54  48  82 NW5       29.92R
$$
MNZ029>031-032-039>041-046>048-054>057-064-230300-
   West Central Minnesota

CITY           SKY/WX    TMP DP  RH WIND       PRES   REMARKS
FERGUS FALLS   CLEAR     61  48  63 NW5       30.07S
WHEATON        CLEAR     61  52  72 CALM      30.11R
MORRIS         CLEAR     61  54  77 W5        30.08S
ALEXANDRIA     CLEAR     60  50  69 W6        30.09R
ELBOW LAKE     FAIR      60  51  73 CALM      30.08S
WADENA         CLEAR     59  46  63 NW3       30.06R
GLENWOOD       CLEAR     59  50  72 W7        30.09R
APPLETON       CLEAR     57  52  82 W5        30.09R
BENSON         CLEAR     59  52  77 NW6       30.10S
ORTONVILLE     CLEAR     64  50  59 MISG      30.10R
MADISON        CLEAR     64  55  72 W3        30.10S
WILLMAR        FAIR      61  54  77 W5        30.10R
$$
MNZ033>034-036-042>043-049>051-058-059-230300-
   Central Minnesota

CITY           SKY/WX    TMP DP  RH WIND       PRES   REMARKS
ST CLOUD       CLEAR     62  49  62 W8        30.04R
SAUK CENTRE    FAIR      59  51  75 W5        30.07S
PAYNESVILLE    CLEAR     55  52  87 W5        30.08R
AITKIN         CLOUDY    61  48  63 CALM      30.02R
PINE RIVER     MOCLDY    61  46  59 CALM      30.07R
BRAINERD       CLEAR     64  45  49 NW7       30.03S
STAPLES        CLEAR     57  45  62 NW5       30.05S
LONG PRAIRIE   FAIR      61  46  59 SW6       30.07R
LITTLE FALLS   CLEAR     55  46  71 CALM      30.05R
LITCHFIELD     CLEAR     63  54  72 CALM      30.08S
BUFFALO        CLEAR     64  48  55 W7        30.06R
MAPLE LAKE     CLEAR     64  51  63 W3        30.06S
HUTCHINSON     CLEAR     59  54  84 W5        30.09R
$$
MNZ037-044-045-052-053-230300-
   East Central Minnesota

CITY           SKY/WX    TMP DP  RH WIND       PRES   REMARKS
PRINCETON      CLEAR     59  50  72 CALM      30.04R
MORA           CLEAR     61  45  55 W5        30.04S
CAMBRIDGE      CLEAR     64  50  59 W3        30.03R
RUSH CITY      MOCLDY    58  49  71 CALM      30.02S
MOOSE LAKE     MOCLDY    61  50  67 NW3       29.99S
HINCKLEY       MOCLDY    61  54  77 W5        30.01R
CLOQUET        CLEAR     61  48  63 W7        30.00R
MCGREGOR       CLOUDY    63  50  63 NW5       30.02S
$$
MNZ071>073-080-081-089-090-097-098-230300-
   Southwest Minnesota

CITY           SKY/WX    TMP DP  RH WIND       PRES   REMARKS
MONTEVIDEO     CLEAR     61  45  55 NW3       30.10S
GRANITE FALLS  CLEAR     63  54  73 NW6       30.11S
CANBY          CLEAR     62  53  72 CALM      30.12S
MARSHALL       CLEAR     62  55  77 W6        30.11R
REDWOOD FALLS  CLEAR     62  50  64 W5        30.09R
OLIVIA         CLEAR     59  52  77 CALM      30.09R
PIPESTONE      CLEAR     59  54  82 SW3       30.13S
WINDOM         CLEAR     59  54  82 CALM      30.12S
JACKSON        CLEAR     59  52  77 CALM      30.13R
TRACY          CLEAR     62  55  75 W3        30.12R
SLAYTON        CLEAR     60  50  69 CALM      30.13S
$$
MNZ065>067-074>077-082>085-091>093-230300-
   South Central Minnesota

CITY           SKY/WX    TMP DP  RH WIND       PRES   REMARKS
MANKATO        CLEAR     60  53  77 W5        30.09R
NEW ULM        CLEAR     57  52  82 SW3       30.09S
ST JAMES       CLEAR     61  54  77 W3        30.11S
FAIRMONT       CLEAR     60  53  77 NW5       30.11S
GLENCOE        CLEAR     64  55  73 W5        30.07R
FARIBAULT      CLEAR     63  52  67 W5        30.07S
OWATONNA       CLEAR     55  52  88 W5        30.08R
WASECA         CLEAR     55  52  88 W5        30.10R
ALBERT LEA     CLEAR     63  54  72 W3        30.09S
$$
MNZ078>079-086>088-094>096-230300-
   Southeast Minnesota

CITY           SKY/WX    TMP DP  RH WIND       PRES   REMARKS
ROCHESTER      CLEAR     57  51  80 W8        30.07R
RED WING       CLEAR     61  48  63 CALM      30.02S
STANTON        CLEAR     61  52  72 SW6       30.04R
DODGE CENTER   CLEAR     61  48  63 W7        30.07S
WINONA         CLEAR     63  52  67 NW3       30.03R
AUSTIN         CLEAR     63  50  63 NW8       30.08R
PRESTON        CLEAR     58  49  71 W9        30.07R
$$
ABBREVIATIONS USED IN REMARKS
   TC - TEMPERATURES IN CELSIUS
  WCI - WIND CHILL INDEX
   HX - HEAT INDEX
  VSB - VISIBILITY
$$




USA.gov is the U.S. government's official web portal to all federal, state and local government web resources and services.